Wichita, KS

4:45 AM CDT on March 27, 2017 (GMT -0500)
Wichita Eisenhower National Airport

Weather History for KICT - July, 2013

Change the Weather History Date:

Thursday, July 11, 2013

  Actual Average Record
Temperature  
Mean Temperature 84 °F 81 °F  
Max Temperature 94 °F 92 °F 111 °F (1980)
Min Temperature 73 °F 70 °F 55 °F (1905)
Degree Days  
Heating Degree Days 0 0  
Month to date heating degree days 0 0  
Since 1 June heating degree days 3 6  
Since 1 July heating degree days 0 0  
Cooling Degree Days 19 16  
Month to date cooling degree days 179 171  
Year to date cooling degree days 719 636  
Since 1 June cooling degree days 581 500  
Growing Degree Days 33 (Base 50)    
Moisture  
Dew Point 67 °F    
Average Humidity 58    
Maximum Humidity 74    
Minimum Humidity 41    
Precipitation  
Precipitation 0.13 in 0.12 in 1.68 in (1953)
Month to date precipitation 0.18 1.35  
Year to date precipitation 16.03 18.41  
Snow  
Snow 0.00 in 0.00 in 0.00 in (2007)
Month to date snowfall 0.0 0.0  
Since 1 June snowfall 0.0 0.0  
Since 1 July snowfall 0.0 0.0  
Snow Depth 0.00 in    
Sea Level Pressure  
Sea Level Pressure 29.96 in    
Wind  
Wind Speed 12 mph (ESE)    
Max Wind Speed 23 mph    
Max Gust Speed 28 mph    
Visibility 10 miles    
Events Rain , Thunderstorm    
T = Trace of Precipitation, MM = Missing Value Source: NWS Daily Summary

Daily Weather History Graph

Daily Weather History Graph

Search for Another Location

Airport or City:

Trip Planner

Search our weather history database for the weather conditions in past years. The results will help you decide how hot, cold, wet, or windy it might be!

Date:

Astronomy

Jul. 11, 2013 Rise Set
Actual Time 6:17 AM CDT 8:52 PM CDT
Civil Twilight 5:47 AM CDT 9:23 PM CDT
Nautical Twilight 5:08 AM CDT 10:01 PM CDT
Astronomical Twilight 4:26 AM CDT 10:43 PM CDT
Moon 9:32 AM CDT (7/11) 10:39 PM CDT (7/11)
Length of Visible Light 15h 36m
Length of Day
14h 34m
Waxing Crescent, 11% of the Moon is Illuminated
Jul 11
Waxing Crescent
Jul 15
First Quarter
Jul 22
Full
Jul 29
Last Quarter
Aug 6
New

Hourly Weather History & Observations

Time (CDT) Temp. Heat Index Dew Point Humidity Pressure Visibility Wind Dir Wind Speed Gust Speed Precip Events Conditions
12:53 AM 84.0 °F 86.5 °F 66.9 °F 56% 29.97 in 10.0 mi ESE 13.8 mph - N/A   Mostly Cloudy
1:53 AM 82.0 °F 85.9 °F 70.0 °F 67% 29.95 in 10.0 mi ESE 9.2 mph - N/A   Mostly Cloudy
2:53 AM 82.0 °F 85.5 °F 69.1 °F 65% 29.94 in 10.0 mi ESE 11.5 mph - N/A   Mostly Cloudy
3:53 AM 82.0 °F 84.1 °F 66.0 °F 58% 29.94 in 10.0 mi ESE 11.5 mph - N/A   Mostly Cloudy
4:53 AM 81.0 °F 82.5 °F 64.0 °F 56% 29.93 in 10.0 mi ESE 12.7 mph - N/A   Mostly Cloudy
5:25 AM 80.6 °F 82.3 °F 64.4 °F 58% 30.00 in 10.0 mi SE 9.2 mph - N/A Thunderstorm Thunderstorm
5:53 AM 80.1 °F 81.7 °F 64.0 °F 58% 29.95 in 10.0 mi SE 8.1 mph - N/A   Mostly Cloudy
6:53 AM 79.0 °F - 64.9 °F 62% 29.96 in 10.0 mi East 10.4 mph - N/A   Mostly Cloudy
7:53 AM 79.0 °F - 66.0 °F 64% 29.95 in 10.0 mi ESE 12.7 mph - N/A   Mostly Cloudy
8:53 AM 81.0 °F 84.1 °F 69.1 °F 67% 29.98 in 10.0 mi SSE 9.2 mph - N/A   Overcast
9:53 AM 82.9 °F 87.0 °F 70.0 °F 65% 29.99 in 10.0 mi NE 8.1 mph - N/A   Overcast
10:49 AM 82.4 °F 85.4 °F 68.0 °F 62% 30.07 in 10.0 mi North 19.6 mph 23.0 mph N/A Thunderstorm Thunderstorm
10:53 AM 82.0 °F 84.5 °F 66.9 °F 60% 30.03 in 10.0 mi NNE 18.4 mph 23.0 mph N/A Thunderstorm Thunderstorm
11:46 AM 73.4 °F - 68.0 °F 83% 30.08 in 10.0 mi NE 17.3 mph - 0.13 in Rain Light Rain
11:53 AM 73.9 °F - 68.0 °F 82% 30.04 in 10.0 mi NE 17.3 mph - 0.13 in   Overcast
12:53 PM 77.0 °F - 68.0 °F 74% 30.01 in 10.0 mi ENE 18.4 mph - N/A   Mostly Cloudy
1:53 PM 84.0 °F 86.5 °F 66.9 °F 56% 29.96 in 10.0 mi East 11.5 mph - N/A   Mostly Cloudy
2:53 PM 87.1 °F 93.6 °F 72.0 °F 61% 29.94 in 10.0 mi East 13.8 mph - N/A   Mostly Cloudy
3:53 PM 91.0 °F 96.6 °F 70.0 °F 50% 29.93 in 10.0 mi SE 15.0 mph - N/A   Mostly Cloudy
4:53 PM 93.0 °F 97.4 °F 68.0 °F 44% 29.90 in 10.0 mi SSE 11.5 mph - N/A   Scattered Clouds
5:53 PM 93.9 °F 97.5 °F 66.9 °F 41% 29.88 in 10.0 mi ESE 12.7 mph 18.4 mph N/A   Partly Cloudy
6:53 PM 93.0 °F 97.9 °F 69.1 °F 45% 29.87 in 10.0 mi ESE 11.5 mph - N/A   Partly Cloudy
7:53 PM 89.1 °F 93.7 °F 69.1 °F 52% 29.89 in 10.0 mi ESE 18.4 mph 21.9 mph N/A   Partly Cloudy
8:53 PM 86.0 °F 89.4 °F 68.0 °F 55% 29.90 in 10.0 mi ESE 13.8 mph 21.9 mph N/A   Partly Cloudy
9:53 PM 84.9 °F 86.6 °F 64.9 °F 51% 29.91 in 10.0 mi ESE 11.5 mph - N/A   Partly Cloudy
10:53 PM 84.0 °F 84.9 °F 63.0 °F 49% 29.92 in 10.0 mi ESE 11.5 mph - N/A   Partly Cloudy
11:53 PM 82.0 °F 83.1 °F 63.0 °F 52% 29.94 in 10.0 mi ESE 10.4 mph - N/A   Partly Cloudy